When you browse on this site, cookies collect data to enhance your experience and personalize the content and advertising you see.
Visit our Privacy Policy to learn more. By continuing to use the site, you agree to this use of cookies and data.
  • Em Portugal
  • Lista de países
  • Para 7 dias
  • Temperatura da água
  • Mapas de satélite
  • Mapa do tempo
  • Widgets de tempo
  • user-avatar
    Iniciar Sessão

    Previsão horária em Wien

    Hoje, 23 Maio, Quinta-feira

    Tempo Temperatura Precipitação Vento Pressão Humidade
    00:00 +11°C° 0.8 mm 6 m/s 742 mmHg 88%
    01:00 +11°C° 0.8 mm 6 m/s 743 mmHg 88%
    02:00 +11°C° 0.6 mm 6 m/s 743 mmHg 88%
    03:00 +10°C° 0.6 mm 6 m/s 743 mmHg 88%
    04:00 +10°C° 0.6 mm 6 m/s 743 mmHg 88%
    05:00 +10°C° 0.3 mm 6 m/s 743 mmHg 87%
    06:00 +10°C° 0.3 mm 6 m/s 743 mmHg 87%
    07:00 +10°C° 0.3 mm 6 m/s 743 mmHg 86%
    08:00 +10°C° 0.2 mm 6 m/s 744 mmHg 84%
    09:00 +11°C° 0.2 mm 6 m/s 744 mmHg 81%
    10:00 +11°C° 0.2 mm 7 m/s 744 mmHg 79%
    11:00 +14°C° 0 mm 6 m/s 744 mmHg 71%
    12:00 +15°C° 0 mm 6 m/s 744 mmHg 64%
    13:00 +17°C° 0 mm 6 m/s 744 mmHg 57%
    14:00 +17°C° 0 mm 6 m/s 743 mmHg 56%
    15:00 +17°C° 0 mm 6 m/s 743 mmHg 55%
    16:00 +17°C° 0 mm 6 m/s 743 mmHg 54%
    17:00 +16°C° 0 mm 5 m/s 743 mmHg 59%
    18:00 +16°C° 0 mm 3 m/s 743 mmHg 63%
    19:00 +15°C° 0 mm 2 m/s 743 mmHg 67%
    20:00 +14°C° 0 mm 2 m/s 743 mmHg 71%
    21:00 +13°C° 0 mm 2 m/s 744 mmHg 74%
    22:00 +12°C° 0 mm 1 m/s 744 mmHg 77%
    23:00 +10°C° 0 mm 2 m/s 744 mmHg 77%

    Amanhã, 24 Maio, Sexta-feira

    Tempo Temperatura Precipitação Vento Pressão Humidade
    00:00 +10°C° 0 mm 2 m/s 744 mmHg 78%
    01:00 +10°C° 0 mm 2 m/s 744 mmHg 79%
    02:00 +9°C° 0 mm 2 m/s 744 mmHg 78%
    03:00 +9°C° 0 mm 2 m/s 743 mmHg 77%
    04:00 +8°C° 0 mm 2 m/s 743 mmHg 76%
    05:00 +10°C° 0 mm 2 m/s 743 mmHg 73%
    06:00 +11°C° 0 mm 3 m/s 743 mmHg 70%
    07:00 +12°C° 0 mm 3 m/s 743 mmHg 67%
    08:00 +14°C° 0 mm 3 m/s 743 mmHg 63%
    09:00 +17°C° 0 mm 3 m/s 743 mmHg 59%
    10:00 +18°C° 0 mm 3 m/s 743 mmHg 55%
    11:00 +19°C° 0 mm 3 m/s 742 mmHg 52%
    12:00 +20°C° 0 mm 3 m/s 742 mmHg 50%
    13:00 +21°C° 0 mm 3 m/s 742 mmHg 47%
    14:00 +21°C° 0 mm 3 m/s 741 mmHg 48%
    15:00 +21°C° 0 mm 3 m/s 741 mmHg 48%
    16:00 +21°C° 0 mm 3 m/s 740 mmHg 49%
    17:00 +20°C° 0 mm 2 m/s 740 mmHg 53%
    18:00 +19°C° 0 mm 2 m/s 740 mmHg 58%
    19:00 +18°C° 0 mm 1 m/s 740 mmHg 62%
    20:00 +16°C° 0 mm 1 m/s 741 mmHg 64%
    21:00 +15°C° 0 mm 1 m/s 741 mmHg 66%
    22:00 +14°C° 0 mm 1 m/s 741 mmHg 69%
    23:00 +13°C° 0 mm 1 m/s 741 mmHg 70%

    Depois de amanhã, 25 Maio, Sábado

    Tempo Temperatura Precipitação Vento Pressão Humidade
    00:00 +13°C° 0 mm 1 m/s 741 mmHg 72%
    01:00 +12°C° 0 mm 1 m/s 741 mmHg 74%
    02:00 +12°C° 0 mm 1 m/s 741 mmHg 75%
    03:00 +11°C° 0 mm 1 m/s 741 mmHg 76%
    04:00 +11°C° 0 mm 1 m/s 741 mmHg 78%
    05:00 +13°C° 0 mm 1 m/s 741 mmHg 73%
    06:00 +14°C° 0 mm 1 m/s 741 mmHg 69%
    07:00 +16°C° 0 mm 1 m/s 741 mmHg 65%
    08:00 +19°C° 0 mm 1 m/s 741 mmHg 59%
    09:00 +20°C° 0 mm 1 m/s 742 mmHg 54%
    10:00 +22°C° 0 mm 1 m/s 742 mmHg 49%
    11:00 +23°C° 0 mm 1 m/s 741 mmHg 45%
    12:00 +25°C° 0 mm 1 m/s 741 mmHg 41%
    13:00 +26°C° 0 mm 1 m/s 741 mmHg 38%
    14:00 +26°C° 0 mm 1 m/s 741 mmHg 38%
    15:00 +26°C° 0 mm 1 m/s 741 mmHg 38%
    16:00 +26°C° 0 mm 1 m/s 740 mmHg 38%
    17:00 +24°C° 0 mm 1 m/s 740 mmHg 43%
    18:00 +23°C° 0 mm 1 m/s 740 mmHg 48%
    19:00 +21°C° 0 mm 1 m/s 740 mmHg 53%
    20:00 +20°C° 0 mm 1 m/s 741 mmHg 57%
    21:00 +19°C° 0 mm 1 m/s 741 mmHg 61%
    22:00 +15°C° 0 mm 0 m/s 741 mmHg 65%
    23:00 +16°C° 0 mm 1 m/s 741 mmHg 69%

    26 Maio, Domingo

    Tempo Temperatura Precipitação Vento Pressão Humidade
    00:00 +15°C° 0 mm 1 m/s 741 mmHg 73%
    01:00 +15°C° 0 mm 1 m/s 741 mmHg 76%
    02:00 +14°C° 0 mm 1 m/s 741 mmHg 79%
    03:00 +14°C° 0 mm 1 m/s 741 mmHg 82%
    04:00 +13°C° 0 mm 2 m/s 741 mmHg 86%
    05:00 +15°C° 0 mm 2 m/s 741 mmHg 82%
    06:00 +16°C° 0 mm 2 m/s 741 mmHg 79%
    07:00 +17°C° 0 mm 3 m/s 741 mmHg 75%
    08:00 +18°C° 0 mm 3 m/s 741 mmHg 71%
    09:00 +19°C° 0 mm 3 m/s 741 mmHg 67%
    10:00 +21°C° 0 mm 3 m/s 741 mmHg 63%
    11:00 +22°C° 0.1 mm 4 m/s 741 mmHg 60%
    12:00 +22°C° 0.1 mm 4 m/s 741 mmHg 56%
    13:00 +23°C° 0.1 mm 4 m/s 741 mmHg 53%
    14:00 +23°C° 0 mm 4 m/s 741 mmHg 53%
    15:00 +24°C° 0 mm 3 m/s 741 mmHg 52%
    16:00 +24°C° 0 mm 3 m/s 741 mmHg 52%
    17:00 +22°C° 0 mm 3 m/s 741 mmHg 56%
    18:00 +21°C° 0 mm 2 m/s 741 mmHg 61%
    19:00 +19°C° 0 mm 2 m/s 741 mmHg 65%
    20:00 +18°C° 0 mm 2 m/s 742 mmHg 68%
    21:00 +18°C° 0 mm 1 m/s 742 mmHg 72%
    22:00 +16°C° 0 mm 1 m/s 742 mmHg 75%
    23:00 +15°C° 0 mm 1 m/s 742 mmHg 77%

    27 Maio, Segunda-feira

    Tempo Temperatura Precipitação Vento Pressão Humidade
    00:00 +13°C° 0 mm 0 m/s 742 mmHg 79%
    01:00 +12°C° 0 mm 0 m/s 742 mmHg 81%
    02:00 +12°C° 0 mm 0 m/s 742 mmHg 82%
    03:00 +12°C° 0 mm 0 m/s 742 mmHg 82%
    04:00 +12°C° 0 mm 0 m/s 742 mmHg 83%
    05:00 +14°C° 0 mm 1 m/s 741 mmHg 78%
    06:00 +15°C° 0 mm 1 m/s 741 mmHg 73%
    07:00 +18°C° 0 mm 1 m/s 741 mmHg 69%
    08:00 +18°C° 0 mm 2 m/s 741 mmHg 64%
    09:00 +20°C° 0 mm 3 m/s 741 mmHg 60%
    10:00 +21°C° 0 mm 3 m/s 741 mmHg 56%
    11:00 +21°C° 0 mm 4 m/s 740 mmHg 57%
    12:00 +21°C° 0 mm 4 m/s 740 mmHg 58%
    13:00 +21°C° 0 mm 4 m/s 739 mmHg 60%
    14:00 +21°C° 0 mm 4 m/s 739 mmHg 61%
    15:00 +21°C° 0 mm 4 m/s 738 mmHg 62%
    16:00 +21°C° 0 mm 4 m/s 738 mmHg 62%
    17:00 +20°C° 0 mm 4 m/s 738 mmHg 67%
    18:00 +18°C° 0 mm 4 m/s 737 mmHg 72%
    19:00 +17°C° 0 mm 4 m/s 737 mmHg 76%
    20:00 +16°C° 0 mm 3 m/s 737 mmHg 80%
    21:00 +16°C° 0 mm 3 m/s 737 mmHg 84%
    22:00 +15°C° 0 mm 2 m/s 736 mmHg 87%
    23:00 +15°C° 0 mm 2 m/s 736 mmHg 88%

    28 Maio, Terça-feira

    Tempo Temperatura Precipitação Vento Pressão Humidade
    00:00 +15°C° 0 mm 1 m/s 736 mmHg 89%
    01:00 +14°C° 0 mm 1 m/s 735 mmHg 90%
    02:00 +14°C° 0 mm 1 m/s 735 mmHg 90%
    03:00 +14°C° 0 mm 1 m/s 735 mmHg 90%
    04:00 +14°C° 0 mm 1 m/s 735 mmHg 90%
    05:00 +15°C° 0 mm 1 m/s 735 mmHg 87%
    06:00 +16°C° 0 mm 1 m/s 735 mmHg 84%
    07:00 +18°C° 0 mm 1 m/s 735 mmHg 81%
    08:00 +18°C° 0.2 mm 2 m/s 735 mmHg 78%
    09:00 +18°C° 0.2 mm 3 m/s 735 mmHg 76%
    10:00 +19°C° 0.2 mm 4 m/s 735 mmHg 74%
    11:00 +20°C° 0.3 mm 4 m/s 735 mmHg 71%
    12:00 +21°C° 0.3 mm 4 m/s 735 mmHg 69%
    13:00 +21°C° 0.3 mm 5 m/s 735 mmHg 67%
    14:00 +20°C° 0.3 mm 6 m/s 735 mmHg 69%
    15:00 +19°C° 0.3 mm 6 m/s 735 mmHg 70%
    16:00 +17°C° 0.3 mm 7 m/s 735 mmHg 71%
    17:00 +16°C° 0 mm 7 m/s 735 mmHg 72%
    18:00 +15°C° 0 mm 7 m/s 736 mmHg 73%
    19:00 +15°C° 0 mm 6 m/s 736 mmHg 74%
    20:00 +14°C° 0.1 mm 6 m/s 737 mmHg 75%
    21:00 +14°C° 0.1 mm 6 m/s 737 mmHg 76%
    22:00 +13°C° 0.1 mm 6 m/s 738 mmHg 77%
    23:00 +13°C° 0.4 mm 6 m/s 738 mmHg 80%
    Mostrar mais